Location: Newark
(37.9844°N, 120.3817°W)
Time: 01:12:29
(UTC+00:00)

Hubble Space Telescope - Visible Passes

Search period start: 19 August 2019 00:00
Search period end: 29 August 2019 00:00
Orbit: 536 x 540 km, 28.5° (Epoch: 17 August)

Date Brightness Start Highest point End Pass type
(mag) Time Alt. Az. Time Alt. Az. Time Alt. Az.
19 Aug 2.5 04:25:07 10° SW 04:28:00 18° S 04:28:07 18° S visible
20 Aug 2.6 04:14:40 10° SW 04:17:21 17° SSW 04:18:02 16° S visible
21 Aug 2.8 04:04:19 10° SW 04:06:42 15° SSW 04:07:58 13° S visible
22 Aug 3.0 03:54:05 10° SW 03:56:02 13° SSW 03:57:55 10° S visible
23 Aug 3.2 03:44:10 10° SW 03:45:22 11° SSW 03:46:35 10° S visible
